Regional Weather Roundup
Issued by NWS

Home | Current Version | Previous Version | Text Only | Print | Product List | Glossary Off
Versions: 1 2 3 4 5 6 7 8 9 10 11 12 13 14 15 16 17 18 19 20 21 22 23 24 25 26 27

000
ASUS45 KBOU 170907
RWRCO

WEATHER ROUNDUP FOR COLORADO
NATIONAL WEATHER SERVICE DENVER/BOULDER CO
300 AM MDT TUE OCT 17 2017

NOTE: "FAIR" INDICATES FEW OR NO CLOUDS BELOW 12000 FEET WITH NO
SIGNIFICANT WEATHER AND/OR OBSTRUCTIONS TO VISIBILITY.

COZ001>005-013-030-031-171000-
...NORTHWEST COLORADO...

CITY           SKY/WX    TMP DP  RH WIND       PRES   REMARKS
CRAIG          FAIR      22  15  75 CALM      30.40S
HAYDEN         FAIR      34  11  38 E15       30.42S WCI  24
MEEKER         FAIR      29  14  53 NE5       30.41S WCI  24
RABBIT EARS PA FAIR      36   1  23 W6        30.54F
STEAMBOAT SPGS FAIR      31  10  42 CALM      30.42F
WALDEN         FAIR      23   9  54 SE5       30.45F WCI  17
$$

COZ006>008-011-171000-
...WEST CENTRAL VALLEYS...

CITY           SKY/WX    TMP DP  RH WIND       PRES   REMARKS
GRAND JUNCTION FAIR      38  13  35 E10       30.36S
MONTROSE       FAIR      33  16  49 SE8       30.42F WCI  26
EAGLE          FAIR      27  14  58 CALM      30.49R
RIFLE          FAIR      31  14  49 CALM      30.42R
DELTA          FAIR      38  11  33 E7        30.40S
NUCLA          FAIR      37  10  32 SE6       30.44R
$$

COZ017>023-064>068-171000-
...SOUTHWEST COLORADO...

CITY           SKY/WX    TMP DP  RH WIND       PRES   REMARKS
DURANGO        FAIR      34  15  46 N6        30.42R WCI  29
CORTEZ         FAIR      28  16  60 NE8       30.40R WCI  20
PAGOSA SPRINGS FAIR      33  13  44 CALM      30.46S
TELLURIDE      NOT AVBL
WOLF CREEK PAS FAIR      34   1  25 S12       30.67F WCI  25
$$

COZ009-010-012-014-032>034-037-058>063-171000-
...CENTRAL COLORADO...

CITY           SKY/WX    TMP DP  RH WIND       PRES   REMARKS
ASPEN          FAIR      29  10  45 SW7       30.46S WCI  22
BUENA VISTA    FAIR      33   5  30 SW3       30.46S
COPPER MTN     FAIR      37 -24   6 W9        30.62F
BERTHOUD PASS  FAIR      28  19  69 NW20      30.61F WCI  15
COTTONWOOD PAS FAIR      48 -15   7 W13G20    30.52S
GUNNISON       FAIR      24   9  52 CALM      30.52R
KREMMLING      FAIR      28  16  59 CALM      30.49S
LEADVILLE      FAIR      27   0  31 N7        30.53S WCI  19
MONARCH PASS   FAIR      34  -6  18 W24       30.72S WCI  21
SALIDA         NOT AVBL
SUNLIGHT       FAIR      36  -2  20 SW8       30.61S
WILKERSON PASS FAIR      37 -15  10 W8        30.59F
$$

COZ069>075-171000-
...SAN LUIS VALLEY/SANGRE DE CRISTO MOUNTAINS...

CITY           SKY/WX    TMP DP  RH WIND       PRES   REMARKS
ALAMOSA        FAIR      26  16  65 CALM      30.44S
DEL NORTE      FAIR      38  13  35 W12       30.46S
LA VETA PASS   FAIR      41  10  28 SW26G37   30.62S
SAGUACHE       FAIR      36   9  32 NW12      30.46F
$$

COZ035-036-038>040-171000-
...NORTHERN COLORADO FRONT RANGE...

CITY           SKY/WX    TMP DP  RH WIND       PRES   REMARKS
DENVER INTL AP FAIR      42  19  39 S10       30.25F
DMNS CITY PARK   N/A     43  17  34 SE9       30.26F
AURORA         PTCLDY    44  17  34 S12       30.27F
FRONT RANGE AP FAIR      37  25  60 S10       30.27S
ERIE MUNI ARPT FAIR      38  24  57 CALM      30.30S
BOULDER MUN AP FAIR      46  18  31 SW5       30.25S
CENTENNIAL     FAIR      47  10  22 SW10      30.28F
BROOMFIELD     FAIR      50  12  22 SW3       30.27F
FORT COLLINS   FAIR      43  25  49 NE7       30.25F
LONGMONT       FAIR      42  22  44 NW3       30.26F
$$

COZ041-046-047-076>085-087-088-171000-
...PIKES PEAK/PALMER DIVIDE AND SOUTHERN FOOTHILLS...

CITY           SKY/WX    TMP DP  RH WIND       PRES   REMARKS
COLO. SPRINGS  FAIR      45  13  27 N12       30.31S
A. F. ACADEMY  FAIR      34   9  35 N10       30.32S WCI  26
SCHRIEVER AFB  FAIR      49   6  17 MISG      30.30F
CHEYENNE MTN   FAIR      55   8  15 NW7       30.29S
ELLICOTT       FAIR     N/A N/A N/A N3        30.29S
FALCON         FAIR      45   6  19 N7        30.34F
FORT CARSON    FAIR      45  13  28 NW10      30.27S
LIMON          FAIR      32  22  66 NW6       30.26F WCI  26
MONUMENT HILL  FAIR      32  12  43 CALM      30.36F
CANON CITY     CLEAR     54   9  16 W20       30.27S
WALSENBURG     FAIR      57  12  17 NW13G22   30.30S
TRINIDAD       FAIR      45  19  35 W16       30.27F
$$

COZ042>045-048>051-090-091-171000-
...NORTHEAST COLORADO...

CITY           SKY/WX    TMP DP  RH WIND       PRES   REMARKS
GREELEY ARPT   FAIR      34  26  72 W7        30.25F WCI  28
AKRON          FAIR      42  22  44 W13       30.22S
BURLINGTON     FAIR      38  28  67 W7        30.20F
WRAY           FAIR      37  28  70 W7        30.19S
YUMA           NOT AVBL
STERLING       FAIR      32  27  80 SW7       30.20S WCI  26
HOLYOKE        FAIR      37  30  75 W9        30.18S
FORT MORGAN    FAIR      35  23  63 SW7       30.23F WCI  29
$$

COZ086-089-092>099-171000-
...SOUTHEAST COLORADO...

CITY           SKY/WX    TMP DP  RH WIND       PRES   REMARKS
PUEBLO         FAIR      44  21  40 SW7       30.23R
LA JUNTA       FAIR      44  28  53 W13       30.19S
LAMAR          FAIR      34  30  85 SW9       30.16R WCI  27
SPRINGFIELD      N/A     35  32  88 W7        30.16F WCI  29
$$




USA.gov is the U.S. government's official web portal to all federal, state and local government web resources and services.